International Skating Union - Official Site

ISU Junior World Cup Speed Skating Inzell
November 25-26, 2017

Draw | Lap Times | Index | World Cup

Referee: Roar  ERIKSEN  (NOR)
Starter: Kari  HAUTAMÄKI  (FIN)
StartTime: EndTime: Air Temp: Ice Temp: Humidity:
15:26 15:39 12℃ -7.5℃ 54%
Result Mass Start Ladies
Rankings as of Jan 27 2018 8:22PM
Rank: No.: Name: Nation: Time: Behind: Points:
1 142 Elisa  Dul NED NED 5:32.48 100
2 125 Laura  Peveri ITA ITA 5:32.96 0.48 80
3 130 Lemi  Williamson JPN JPN 5:33.23 0.75 70
4 124 Federica  Maffei ITA ITA 5:50.31 17.83 60
5 105 Polina  Polukarova BLR BLR 6:11.25 38.77 50
6 139 Jung Min  Yoon KOR KOR 5:35.42 2.94 44
7 162 Kristina  Silaeva RUS RUS 5:33.48 1.00 40
8 157 Elizaveta  Agafoshina RUS RUS 5:33.70 1.22 36
9 143 Sterre  Jonkers NED NED 5:33.72 1.24 32
10 135 Eun Gyul  Hong KOR KOR 5:34.77 2.29 28
11 103 Anna  Kovaleva BLR BLR 5:35.44 2.96 24
12 146 Ragne  Wiklund NOR NOR 5:35.50 3.02 20
13 108 Weiping  Gan CHN CHN 5:35.98 3.50 18
14 101 Viola  Feichtner AUT AUT 5:36.02 3.54 16
15 147 Kaja  Gajewska POL POL 5:36.21 3.73 14
16 120 Lea-Sophie  Scholz GER GER 5:37.74 5.26 12
17 164 Jasmin  Güntert SUI SUI 5:37.79 5.31 10
18 114 Ainoa  Carreño ESP ESP 5:38.67 6.19 8
19 107 Xiangyu  Chen CHN CHN 5:38.70 6.22 6
20 116 Tuuli  Vaher EST EST 5:45.97 13.49 5
21 150 Natalia  Jabrzyk POL POL 5:47.96 15.48 4
22 102 Viktoria  Schinnerl AUT AUT 5:53.41 20.93 3
23 115 Kristiine  Kalev EST EST 5:53.60 21.12 2
24 134 Xeniya  Yakovleva KAZ KAZ 6:00.18 27.70 1
25 163 Séverine  Biermann SUI SUI 6:02.53 30.05 0
26 117 Anni  Käsnänen FIN FIN 6:02.84 30.36 0